Regional Weather Roundup
Issued by NWS

Home | Current Version | Previous Version | Text Only | Print | Product List | Glossary Off
Versions: 1 2 3 4 5 6 7 8 9 10 11 12 13 14 15 16 17 18 19 20 21 22 23 24 25 26 27 28 29 30 31 32 33 34 35 36 37 38 39 40 41 42 43 44 45 46 47 48 49 50

000
ASUS43 KMPX 222010
RWRMN
WEATHER ROUNDUP FOR MINNESOTA
NATIONAL WEATHER SERVICE TWIN CITIES/CHANHASSEN MN
300 PM CDT MON SEP 22 2014


NOTE: "FAIR" INDICATES FEW OR NO CLOUDS BELOW 12,000 FEET WITH NO
SIGNIFICANT WEATHER AND/OR OBSTRUCTIONS TO VISIBILITY. N/A MEANS
CURRENT SKY AND/OR WEATHER CONDITIONS ARE NOT AVAILABLE.

MNZ060>063-068>070-222100-
   Twin Cities Metro

CITY           SKY/WX    TMP DP  RH WIND       PRES   REMARKS
TWIN CITIES    MOSUNNY   69  49  48 SW8       30.21F
ST PAUL        SUNNY     70  51  51 SW8       30.21F
CRYSTAL        MOSUNNY   72  51  47 SW10      30.19F
BLAINE         MOSUNNY   72  52  49 SW12      30.20F
LAKEVILLE      SUNNY     70  50  49 W8        30.22F
EDEN PRAIRIE   SUNNY     71  51  49 SW10      30.20F
SOUTH ST PAUL  SUNNY     70  50  49 SW7       30.21F
LAKE ELMO      FAIR      70  52  52 W5        30.22S
$$
MNZ001>005-007-008-013>017-022>024-027-028-222100-
   Northwest Minnesota

CITY           SKY/WX    TMP DP  RH WIND       PRES   REMARKS
BEMIDJI        SUNNY     72  47  41 SW9       30.12F
HALLOCK        SUNNY     77  45  31 SW14      30.04F
ROSEAU         SUNNY     75  48  38 W10G21    30.06F
WARROAD        SUNNY     73  54  49 SW9G17    30.06F
THIEF RVR FALL SUNNY     73  48  40 SW12      30.10S
CROOKSTON      SUNNY     73  48  40 SW12      30.09F
FOSSTON        SUNNY     73  54  49 SW6G16    30.12F
DETROIT LAKES  SUNNY     70  46  43 SW7       30.16F
MOORHEAD       SUNNY     75  39  27 S9        30.12F
PARK RAPIDS    SUNNY     72  47  40 SW10      30.15F
MAHNOMEN       FAIR      72  46  39 SW8G16    30.12F
$$
MNZ006-009>011-018-025>026-222100-
   North Central Minnesota

CITY           SKY/WX    TMP DP  RH WIND       PRES   REMARKS
BAUDETTE       SUNNY     73  48  41 SW12      30.07S
FLAG ISLAND    SUNNY     72  45  37 W10G16    30.03F
INTL FALLS     SUNNY     73  49  42 W8        30.07F
WASKISH        SUNNY     72  54  53 SW5       30.10F
BIG FORK       SUNNY     73  48  40 SW6       30.11F
LONGVILLE      SUNNY     72  50  46 SW7       30.14F
GRAND RAPIDS   SUNNY     70  48  46 W8G16     30.14F
CRANE LAKE     SUNNY     70  48  46 SW3       30.09F
ORR            SUNNY     73  45  35 W9        30.07F
COOK           SUNNY     72  48  43 W12       30.10F
WALKER         FAIR      71  47  41 SW10      30.13F
$$
MNZ012-019>021-037-222100-
   Northeast Minnesota

CITY           SKY/WX    TMP DP  RH WIND       PRES   REMARKS
DULUTH         MOSUNNY   71  49  45 W10       30.13F
ELY            SUNNY     70  48  46 W10G16    30.09F
HIBBING        SUNNY     72  48  42 W8        30.12F
EVELETH        SUNNY     70  46  43 W15       30.12F
DULUTH HARBOR  SUNNY     72  52  49 SW14      30.12F
TWO HARBORS    SUNNY     72  50  46 W9        30.09F
SILVER BAY     SUNNY     70  54  56 W6        30.07F
GRAND MARAIS     N/A     56  51  84 W8        30.06F
G MARAIS ARPRT SUNNY     68  43  40 W8        30.08S
$$
MNZ029>031-032-039>041-046>048-054>057-064-222100-
   West Central Minnesota

CITY           SKY/WX    TMP DP  RH WIND       PRES   REMARKS
FERGUS FALLS   SUNNY     75  43  31 W8        30.13F
WHEATON        SUNNY     73  46  38 S7        30.15F
MORRIS         SUNNY     73  50  43 S6        30.15F
ALEXANDRIA     SUNNY     71  49  45 SW6       30.19F
ELBOW LAKE     FAIR      71  49  45 S7        30.15F
WADENA         SUNNY     70  48  46 SW8       30.16F
GLENWOOD       SUNNY     72  50  46 S5        30.19F
APPLETON       SUNNY     75  45  33 W7        30.16F
BENSON         SUNNY     73  48  40 SW5       30.17F
ORTONVILLE     SUNNY     73  45  35 SW3       30.15F
MADISON        SUNNY     77  45  31 S8        30.16F
WILLMAR        FAIR      72  46  40 SW5       30.20F
$$
MNZ033>034-036-042>043-049>051-058-059-222100-
   Central Minnesota

CITY           SKY/WX    TMP DP  RH WIND       PRES   REMARKS
ST CLOUD       SUNNY     73  49  42 SW12      30.19S
SAUK CENTRE    FAIR      70  49  47 W6        30.19F
PAYNESVILLE    SUNNY     67  48  52 S7        30.20F
AITKIN         SUNNY     73  52  46 W5        30.15F
PINE RIVER     SUNNY     72  52  49 W7        30.17F
BRAINERD       SUNNY     70  48  45 SW7       30.16F
STAPLES        SUNNY     72  46  40 W9        30.17S
LONG PRAIRIE   FAIR      70  48  46 S5        30.19S
LITTLE FALLS   SUNNY     70  46  43 SW7       30.18S
LITCHFIELD     SUNNY     72  50  46 W5        30.20F
BUFFALO        SUNNY     70  50  49 S8        30.21F
MAPLE LAKE     SUNNY     71  53  52 S6        30.21F
$$
MNZ037-044-045-052-053-222100-
   East Central Minnesota

CITY           SKY/WX    TMP DP  RH WIND       PRES   REMARKS
PRINCETON      SUNNY     73  52  46 S3        30.19F
MORA           SUNNY     70  50  49 SW8       30.19F
CAMBRIDGE      SUNNY     73  54  49 W8        30.17F
RUSH CITY      SUNNY     70  51  50 SW6       30.18F
MOOSE LAKE     SUNNY     70  48  46 W10       30.13F
HINCKLEY       FAIR      70  52  52 SW9       30.17F
CLOQUET        SUNNY     72  46  40 W13       30.14F
MCGREGOR       SUNNY     70  50  49 SW10G18   30.16S
$$
MNZ071>073-080-081-089-090-097-098-222100-
   Southwest Minnesota

CITY           SKY/WX    TMP DP  RH WIND       PRES   REMARKS
MONTEVIDEO     SUNNY     79  48  34 W3        30.18F
GRANITE FALLS  SUNNY     74  46  37 S5        30.19F
CANBY          SUNNY     73  45  36 SW3       30.18F
MARSHALL       SUNNY     73  45  35 SW9       30.18F
REDWOOD FALLS  SUNNY     74  47  38 SW8       30.19F
OLIVIA         SUNNY     72  46  40 CALM      30.18F
PIPESTONE      MOSUNNY   70  45  40 SW12      30.20F
WINDOM         SUNNY     73  46  38 S9        30.21F
WORTHINGTON    SUNNY     72  45  37 SW9       30.22F
JACKSON        SUNNY     72  45  37 S10       30.23F
TRACY          SUNNY     73  47  40 S10G16    30.20F
SLAYTON        SUNNY     72  42  34 SW10      30.22F
$$
MNZ065>067-074>077-082>085-091>093-222100-
   South Central Minnesota

CITY           SKY/WX    TMP DP  RH WIND       PRES   REMARKS
MANKATO        SUNNY     70  46  43 W6        30.22F
NEW ULM        SUNNY     72  50  46 SW8       30.20F
ST JAMES       SUNNY     73  45  35 S6        30.22F
FAIRMONT       SUNNY     72  46  40 SW8       30.23F
GLENCOE        SUNNY     72  48  41 SW6       30.20F
FARIBAULT      SUNNY     73  45  35 W7        30.23F
OWATONNA       SUNNY     70  48  46 NW3       30.23F
WASECA         SUNNY     72  45  37 SW6       30.24F
ALBERT LEA     SUNNY     70  48  46 S6        30.23F
$$
MNZ078>079-086>088-094>096-222100-
   Southeast Minnesota

CITY           SKY/WX    TMP DP  RH WIND       PRES   REMARKS
ROCHESTER      SUNNY     69  50  50 VRB3      30.25F
RED WING       SUNNY     72  48  43 W5        30.21F
STANTON        SUNNY     71  50  46 CALM      30.21F
DODGE CENTER   SUNNY     68  50  52 SW3       30.24F
WINONA         MOSUNNY   70  52  52 NE5       30.22F
AUSTIN         SUNNY     68  48  49 NW7       30.23F
PRESTON        SUNNY     67  53  61 NW9       30.25S
$$
ABBREVIATIONS USED IN REMARKS
   TC - TEMPERATURES IN CELSIUS
  WCI - WIND CHILL INDEX
   HX - HEAT INDEX
  VSB - VISIBILITY
$$


USA.gov is the U.S. government's official web portal to all federal, state and local government web resources and services.